DB0LHR-6 Weather Reports


time (UTC)temp
C
wind
direction
speed
KPH
gust
KPH
rain 1hr
cm
rain 24hr
cm
rain mn
cm
humidity
%
barometer
mb
20260507130116 15 278 0.0 0.0 0.00 0.00 0.00 52 1015.0
20260507124616 16 312 0.0 0.0 0.00 0.00 0.00 54 1015.0
20260507123116 15 176 0.0 0.0 0.00 0.00 0.00 54 1015.0
20260507121616 15 204 0.0 0.0 0.00 0.00 0.00 55 1015.0
20260507120116 15 180 0.0 0.0 0.00 0.00 0.00 56 1015.0
20260507114616 15 234 0.0 0.0 0.00 0.00 0.00 55 1015.0
20260507113116 15 248 0.0 0.0 0.00 0.00 0.00 55 1015.0
20260507111616 16 261 11.3 0.0 0.00 0.00 0.00 61 1015.0
20260507110116 15 219 0.0 0.0 0.00 0.00 0.00 62 1015.0
20260507104616 15 159 0.0 0.0 0.00 0.00 0.00 63 1015.0
20260507103116 14 327 0.0 0.0 0.00 0.00 0.00 68 1015.0
20260507101616 14 203 0.0 0.0 0.00 0.00 0.00 71 1015.0
20260507100116 14 184 0.0 0.0 0.00 0.00 0.00 78 1015.0
20260507094616 13 194 0.0 0.0 0.00 0.00 0.00 87 1015.0
20260507093116 13 216 0.0 0.0 0.00 0.00 0.00 95 1015.0
20260507091616 12 324 0.0 0.0 0.00 0.00 0.00 97 1015.0
20260507090116 12 328 0.0 0.0 0.00 0.00 0.00 97 1014.0
20260507084616 12 189 0.0 0.0 0.00 0.00 0.00 97 1014.0
20260507083116 12 251 0.0 0.0 0.00 0.00 0.00 97 1014.0
20260507081616 11 218 0.0 0.0 0.00 0.00 0.00 97 1014.0
20260507080116 11 320 0.0 0.0 0.00 0.00 0.00 97 1014.0
20260507074616 11 321 0.0 0.0 0.00 0.00 0.00 97 1014.0
20260507073116 10 208 0.0 0.0 0.00 0.00 0.00 97 1014.0
20260507071616 10 190 3.2 0.0 0.00 0.00 0.00 97 1014.0
20260507070116 10 322 0.0 0.0 0.00 0.00 0.00 97 1014.0
20260507064616 10 163 0.0 0.0 0.00 0.00 0.00 97 1014.0
20260507063116 10 327 0.0 0.0 0.00 0.00 0.00 97 1014.0
20260507061616 10 297 0.0 0.0 0.00 0.00 0.00 97 1013.0
20260507060116 10 329 0.0 0.0 0.00 0.00 0.00 97 1013.0
20260507054616 10 219 0.0 0.0 0.00 0.00 0.00 97 1013.0
20260507053116 10 337 0.0 0.0 0.00 0.00 0.00 97 1013.0
20260507051616 10 208 0.0 0.0 0.00 0.00 0.00 97 1013.0
20260507050116 10 183 0.0 0.0 0.00 0.00 0.00 97 1013.0
20260507044616 9 321 0.0 0.0 0.00 0.00 0.00 97 1013.0
20260507043116 9 190 0.0 0.0 0.00 0.00 0.00 97 1012.0
20260507041616 9 173 0.0 0.0 0.00 0.00 0.00 97 1012.0
20260507040116 9 214 0.0 0.0 0.00 0.00 0.00 97 1012.0
20260507034616 9 218 0.0 0.0 0.00 0.00 0.00 97 1012.0
20260507033116 9 168 0.0 0.0 0.00 0.00 0.00 97 1012.0
20260507031616 9 180 0.0 0.0 0.00 0.00 0.00 97 1012.0
20260507030116 9 198 3.2 0.0 0.00 0.00 0.00 97 1012.0
20260507024616 9 154 0.0 0.0 0.00 0.00 0.00 97 1012.0
20260507023116 9 178 0.0 0.0 0.00 0.00 0.00 97 1012.0
20260507021616 9 345 0.0 0.0 0.00 0.00 0.00 97 1012.0
20260507020116 9 216 0.0 0.0 0.00 0.00 0.00 97 1012.0
20260507014616 9 214 0.0 0.0 0.00 0.00 0.00 97 1012.0
20260507013116 9 208 0.0 0.0 0.00 0.00 0.00 97 1011.0
20260507011616 9 221 0.0 0.0 0.00 0.00 0.00 97 1011.0
20260507010116 9 236 0.0 0.0 0.00 0.00 0.00 97 1011.0
20260507004616 9 173 1.6 0.0 0.00 0.00 0.00 97 1011.0
20260507003116 9 160 0.0 0.0 0.00 0.00 0.00 97 1011.0
20260507001616 9 231 0.0 0.0 0.00 0.00 0.00 97 1011.0
20260507000116 9 207 0.0 0.0 0.00 0.00 0.00 97 1011.0
20260506234617 9 141 4.8 0.0 0.00 0.00 0.00 97 1011.0
20260506233116 9 175 0.0 0.0 0.00 0.00 0.00 97 1011.0
20260506231616 9 168 0.0 0.0 0.00 0.00 0.00 97 1011.0
20260506230116 9 216 0.0 0.0 0.00 0.00 0.00 97 1011.0
20260506224616 9 184 0.0 0.0 0.00 0.00 0.00 97 1011.0
20260506223116 10 178 0.0 0.0 0.00 0.00 0.00 97 1011.0
20260506221616 10 216 0.0 0.0 0.00 0.00 0.00 97 1010.0
20260506220116 10 161 3.2 0.0 0.00 0.00 0.00 97 1010.0
20260506214616 10 180 0.0 0.0 0.00 0.00 0.00 97 1010.0
20260506213116 10 207 4.8 0.0 0.00 0.00 0.00 97 1010.0
20260506211616 10 135 3.2 0.0 0.00 0.00 0.00 97 1010.0
20260506210116 10 199 0.0 0.0 0.00 0.00 0.00 97 1010.0
20260506204616 10 145 0.0 0.0 0.00 0.00 0.00 97 1010.0
20260506203116 10 172 0.0 0.0 0.00 0.00 0.00 97 1010.0
20260506201616 10 187 0.0 0.0 0.00 0.00 0.00 97 1010.0
20260506200116 10 144 0.0 0.0 0.00 0.00 0.00 97 1010.0
20260506194616 10 180 0.0 0.0 0.00 0.00 0.00 97 1010.0
20260506193116 10 216 4.8 0.0 0.00 0.00 0.00 97 1010.0
20260506191616 10 184 0.0 0.0 0.00 0.00 0.00 97 1009.0
20260506190116 10 203 0.0 0.0 0.00 0.00 0.00 97 1009.0
20260506184616 10 166 3.2 0.0 0.00 0.00 0.00 96 1009.0
20260506183116 10 152 4.8 0.0 0.00 0.00 0.00 95 1009.0
20260506181616 10 222 0.0 0.0 0.00 0.00 0.00 95 1008.0
20260506180116 10 322 0.0 0.0 0.00 0.00 0.00 94 1008.0
20260506174616 10 210 0.0 0.0 0.00 0.00 0.00 94 1008.0
20260506173116 11 176 0.0 0.0 0.00 0.00 0.00 93 1008.0
20260506171616 11 273 1.6 0.0 0.00 0.00 0.00 92 1008.0
20260506170116 11 186 0.0 0.0 0.00 0.00 0.00 90 1008.0
20260506164616 11 328 0.0 0.0 0.00 0.00 0.00 89 1008.0
20260506163116 11 203 0.0 0.0 0.00 0.00 0.00 89 1008.0
20260506161616 11 218 4.8 0.0 0.00 0.00 0.00 89 1008.0
20260506160116 11 156 0.0 0.0 0.00 0.00 0.00 89 1008.0
20260506154616 12 160 6.4 0.0 0.00 0.00 0.00 89 1008.0
20260506153116 12 174 0.0 0.0 0.00 0.00 0.00 89 1008.0
20260506151616 12 327 4.8 0.0 0.00 0.00 0.00 89 1008.0
20260506150116 12 160 22.5 0.0 0.00 0.00 0.00 87 1008.0
20260506144616 12 213 3.2 0.0 0.00 0.00 0.00 86 1008.0
20260506143116 12 174 4.8 0.0 0.00 0.00 0.00 82 1008.0
20260506141616 12 222 4.8 0.0 0.00 0.00 0.00 78 1008.0
20260506140116 13 232 3.2 0.0 0.00 0.00 0.00 74 1007.0
20260506134616 13 313 3.2 0.0 0.00 0.00 0.00 76 1007.0
20260506133116 13 130 8.0 0.0 0.00 0.00 0.00 78 1007.0
20260506131616 14 185 6.4 0.0 0.00 0.00 0.00 81 1007.0